This is the latest recevied weather packets stored in our database for station/object ON7XX-13. If no packets are shown the sender has not sent any weather packets the latest 10 day(s).
| Time | Temp. | Humidity | Pressure | Rain* | Wind** | Luminosity | Snow |
|---|---|---|---|---|---|---|---|
| 1777413620 | 14.44° C | 40% | 1021.5 hPa | - | - | - | - |
| 1777413006 | 15° C | 40% | 1021.5 hPa | - | - | - | - |
| 1777412392 | 15° C | 40% | 1021.5 hPa | - | - | - | - |
| 1777411778 | 15° C | 40% | 1021.4 hPa | - | - | - | - |
| 1777411163 | 15.56° C | 40% | 1021.4 hPa | - | - | - | - |
| 1777410549 | 15.56° C | 40% | 1021.4 hPa | - | - | - | - |
| 1777409935 | 15.56° C | 39% | 1021.2 hPa | - | - | - | - |
| 1777409321 | 16.11° C | 39% | 1021.3 hPa | - | - | - | - |
| 1777408706 | 16.11° C | 39% | 1021.2 hPa | - | - | - | - |
| 1777408092 | 16.11° C | 39% | 1021.2 hPa | - | - | - | - |
| 1777407476 | 16.67° C | 39% | 1021.1 hPa | - | - | - | - |
| 1777406862 | 16.67° C | 38% | 1021 hPa | - | - | - | - |
| 1777406248 | 17.22° C | 38% | 1021 hPa | - | - | - | - |
| 1777405634 | 17.22° C | 37% | 1020.9 hPa | - | - | - | - |
| 1777405020 | 17.22° C | 37% | 1020.6 hPa | - | - | - | - |
| 1777404405 | 17.78° C | 37% | 1020.5 hPa | - | - | - | - |
| 1777403791 | 18.33° C | 36% | 1020.4 hPa | - | - | - | - |
| 1777403177 | 18.33° C | 36% | 1020.2 hPa | - | - | - | - |
| 1777402563 | 18.89° C | 35% | 1020 hPa | - | - | - | - |
| 1777401949 | 18.89° C | 35% | 1019.9 hPa | - | - | - | - |
| 1777401335 | 19.44° C | 34% | 1019.9 hPa | - | - | - | - |
| 1777400720 | 20° C | 34% | 1019.8 hPa | - | - | - | - |
| 1777400106 | 20° C | 34% | 1019.8 hPa | - | - | - | - |
| 1777399491 | 20.56° C | 34% | 1019.7 hPa | - | - | - | - |
| 1777398877 | 21.11° C | 34% | 1019.6 hPa | - | - | - | - |
* Rain since midnight (hover to see other rain measurements)
** Current wind speed in m/s (hover to see current wind gust speed)